Location: Moscow
(55.7500°N, 37.5830°E)
Time: 01:55:56
(UTC+03:00)

Explorer 7 - Pass Details

Date: 03 December 2021
Orbit: 483 x 674 km, 50.3° (Epoch: 17 January)

Event Time Altitude Azimuth Distance (km) Brightness Sun altitude
Rises 08:13:55 0° 241° (WSW) 2,752 10.1 -3.5°
Reaches altitude 10° 08:16:22 10° 231° (SW) 1,822 9.3 -3.3°
Maximum altitude 08:20:04 33° 168° (SSE) 909 8.6 -2.8°
Drops below altitude 10° 08:23:37 10° 103° (ESE) 1,733 10.7 -2.4°
Sets 08:25:54 0° 94° (E) 2,596 11.3 -2.2°
